| time (UTC) | temp F | wind direction | speed MPH | gust MPH | rain 1hr in | rain 24hr in | rain mn in | humidity % | barometer mb |
| 20260905083958 | 57 | 346 | 0.0 | 0.0 | 0.00 | 0.00 | 0.00 | 89 | 1016.2 |
| 20260905083453 | 56 | 356 | 0.0 | 1.0 | 0.00 | 0.00 | 0.00 | 89 | 1016.4 |
| 20260905082949 | 57 | 46 | 0.0 | 0.0 | 0.00 | 0.00 | 0.00 | 88 | 1016.3 |
| 20260905082444 | 57 | 79 | 1.0 | 1.0 | 0.00 | 0.00 | 0.00 | 88 | 1016.3 |
| 20260905081939 | 57 | 68 | 1.0 | 2.0 | 0.00 | 0.00 | 0.00 | 88 | 1016.4 |
| 20260905081434 | 57 | 63 | 0.0 | 0.0 | 0.00 | 0.00 | 0.00 | 87 | 1016.3 |
| 20260905080933 | 57 | 341 | 0.0 | 0.0 | 0.00 | 0.00 | 0.00 | 87 | 1016.4 |
| 20260905080428 | 57 | 28 | 1.0 | 1.0 | 0.00 | 0.00 | 0.00 | 86 | 1016.3 |
| 20260905075927 | 57 | 26 | 1.0 | 1.0 | 0.00 | 0.00 | 0.00 | 86 | 1016.3 |
| 20260905075422 | 57 | 10 | 0.0 | 0.0 | 0.00 | 0.00 | 0.00 | 86 | 1016.2 |
| 20260905074921 | 57 | 351 | 1.0 | 1.0 | 0.00 | 0.00 | 0.00 | 86 | 1016.2 |
| 20260905074416 | 57 | 25 | 2.0 | 3.0 | 0.00 | 0.00 | 0.00 | 86 | 1016.0 |
| 20260905073912 | 57 | 25 | 1.0 | 2.0 | 0.00 | 0.00 | 0.00 | 86 | 1016.0 |
| 20260905073407 | 57 | 26 | 2.0 | 2.0 | 0.00 | 0.00 | 0.00 | 86 | 1016.2 |
| 20260905072903 | 57 | 20 | 2.0 | 2.0 | 0.00 | 0.00 | 0.00 | 85 | 1016.2 |
| 20260905072356 | 57 | 358 | 3.0 | 3.0 | 0.00 | 0.00 | 0.00 | 86 | 1016.1 |
| 20260905071852 | 58 | 323 | 0.0 | 0.0 | 0.00 | 0.00 | 0.00 | 86 | 1016.0 |
| 20260905071343 | 58 | 350 | 2.0 | 2.0 | 0.00 | 0.00 | 0.00 | 86 | 1016.1 |
| 20260905070837 | 58 | 336 | 0.0 | 1.0 | 0.00 | 0.00 | 0.00 | 86 | 1016.3 |
| 20260905070334 | 58 | 315 | 1.0 | 1.0 | 0.00 | 0.00 | 0.00 | 85 | 1015.9 |
| 20260905065833 | 58 | 344 | 3.0 | 3.0 | 0.00 | 0.00 | 0.00 | 85 | 1016.0 |
| 20260905065331 | 58 | 326 | 0.0 | 0.0 | 0.00 | 0.00 | 0.00 | 84 | 1015.9 |
| 20260905064827 | 58 | 336 | 0.0 | 0.0 | 0.00 | 0.00 | 0.00 | 84 | 1016.0 |
| 20260905064323 | 58 | 302 | 1.0 | 1.0 | 0.00 | 0.00 | 0.00 | 84 | 1015.8 |
| 20260905063820 | 58 | 318 | 0.0 | 0.0 | 0.00 | 0.00 | 0.00 | 83 | 1015.7 |
| 20260905063316 | 58 | 315 | 0.0 | 0.0 | 0.00 | 0.00 | 0.00 | 83 | 1015.9 |
| 20260905062813 | 58 | 327 | 1.0 | 1.0 | 0.00 | 0.00 | 0.00 | 83 | 1015.8 |
| 20260905062307 | 58 | 317 | 0.0 | 0.0 | 0.00 | 0.00 | 0.00 | 84 | 1015.8 |
| 20260905061802 | 58 | 323 | 1.0 | 1.0 | 0.00 | 0.00 | 0.00 | 83 | 1015.7 |
| 20260905061256 | 58 | 322 | 1.0 | 1.0 | 0.00 | 0.00 | 0.00 | 83 | 1016.1 |
| 20260905060750 | 58 | 295 | 0.0 | 0.0 | 0.00 | 0.00 | 0.00 | 83 | 1015.9 |
| 20260905060248 | 59 | 324 | 0.0 | 0.0 | 0.00 | 0.00 | 0.00 | 83 | 1015.9 |
| 20260905055746 | 59 | 357 | 1.0 | 1.0 | 0.00 | 0.00 | 0.00 | 82 | 1015.8 |
| 20260905055241 | 59 | 350 | 4.0 | 5.0 | 0.00 | 0.00 | 0.00 | 82 | 1016.0 |
| 20260905054736 | 59 | 327 | 0.0 | 0.0 | 0.00 | 0.00 | 0.00 | 81 | 1016.0 |
| 20260905054232 | 59 | 331 | 0.0 | 1.0 | 0.00 | 0.00 | 0.00 | 80 | 1015.6 |
| 20260905053731 | 59 | 326 | 1.0 | 2.0 | 0.00 | 0.00 | 0.00 | 80 | 1015.9 |
| 20260905053226 | 59 | 339 | 1.0 | 1.0 | 0.00 | 0.00 | 0.00 | 80 | 1015.6 |
| 20260905052721 | 59 | 348 | 2.0 | 2.0 | 0.00 | 0.00 | 0.00 | 80 | 1015.5 |
| 20260905052216 | 59 | 350 | 1.0 | 1.0 | 0.00 | 0.00 | 0.00 | 80 | 1015.6 |
| 20260905051715 | 59 | 8 | 0.0 | 0.0 | 0.00 | 0.00 | 0.00 | 80 | 1015.5 |
| 20260905051212 | 59 | 359 | 0.0 | 0.0 | 0.00 | 0.00 | 0.00 | 80 | 1015.7 |
| 20260905050708 | 59 | 27 | 0.0 | 0.0 | 0.00 | 0.00 | 0.00 | 79 | 1015.8 |
| 20260905050205 | 60 | 353 | 0.0 | 0.0 | 0.00 | 0.00 | 0.00 | 79 | 1015.6 |
| 20260905045704 | 60 | 10 | 0.0 | 0.0 | 0.00 | 0.00 | 0.00 | 79 | 1015.6 |
| 20260905045200 | 60 | 24 | 3.0 | 5.0 | 0.00 | 0.00 | 0.00 | 79 | 1015.7 |
| 20260905044655 | 60 | 70 | 2.0 | 2.0 | 0.00 | 0.00 | 0.00 | 79 | 1015.6 |
| 20260905044150 | 60 | 35 | 3.0 | 3.0 | 0.00 | 0.00 | 0.00 | 78 | 1015.6 |
| 20260905043649 | 60 | 46 | 3.0 | 3.0 | 0.00 | 0.00 | 0.00 | 77 | 1015.7 |
| 20260905043144 | 60 | 17 | 2.0 | 2.0 | 0.00 | 0.00 | 0.00 | 77 | 1015.7 |
| 20260905042643 | 60 | 51 | 4.0 | 6.0 | 0.00 | 0.00 | 0.00 | 76 | 1015.7 |
| 20260905042137 | 60 | 23 | 5.0 | 6.0 | 0.00 | 0.00 | 0.00 | 75 | 1015.6 |
| 20260905041633 | 60 | 55 | 4.0 | 6.0 | 0.00 | 0.00 | 0.00 | 75 | 1015.7 |
| 20260905041129 | 60 | 62 | 4.0 | 6.0 | 0.00 | 0.00 | 0.00 | 76 | 1015.7 |
| 20260905040629 | 60 | 72 | 2.0 | 2.0 | 0.00 | 0.00 | 0.00 | 76 | 1015.9 |
| 20260905040127 | 60 | 58 | 4.0 | 5.0 | 0.00 | 0.00 | 0.00 | 77 | 1015.7 |
| 20260905035623 | 60 | 57 | 3.0 | 5.0 | 0.00 | 0.00 | 0.00 | 77 | 1015.9 |
| 20260905035119 | 60 | 80 | 4.0 | 5.0 | 0.00 | 0.00 | 0.00 | 77 | 1015.6 |
| 20260905034614 | 60 | 75 | 1.0 | 2.0 | 0.00 | 0.00 | 0.00 | 77 | 1015.6 |
| 20260905034109 | 61 | 32 | 3.0 | 5.0 | 0.00 | 0.00 | 0.00 | 77 | 1015.6 |
| 20260905033608 | 61 | 31 | 4.0 | 6.0 | 0.00 | 0.00 | 0.00 | 76 | 1015.7 |
| 20260905033104 | 61 | 58 | 3.0 | 5.0 | 0.00 | 0.00 | 0.00 | 76 | 1015.5 |
| 20260905032604 | 61 | 68 | 6.0 | 7.0 | 0.00 | 0.00 | 0.00 | 75 | 1015.3 |
| 20260905032104 | 61 | 55 | 1.0 | 3.0 | 0.00 | 0.00 | 0.00 | 75 | 1015.7 |
| 20260905031559 | 61 | 67 | 3.0 | 3.0 | 0.00 | 0.00 | 0.00 | 74 | 1015.6 |
| 20260905031059 | 61 | 71 | 3.0 | 5.0 | 0.00 | 0.00 | 0.00 | 74 | 1015.3 |
| 20260905030554 | 62 | 63 | 3.0 | 5.0 | 0.00 | 0.00 | 0.00 | 76 | 1015.2 |
| 20260905030049 | 62 | 67 | 2.0 | 5.0 | 0.00 | 0.00 | 0.00 | 75 | 1015.3 |
| 20260905025545 | 62 | 60 | 4.0 | 6.0 | 0.00 | 0.00 | 0.00 | 74 | 1015.1 |
| 20260905025041 | 63 | 43 | 5.0 | 7.0 | 0.00 | 0.00 | 0.00 | 72 | 1015.3 |
| 20260905024536 | 63 | 75 | 1.0 | 2.0 | 0.00 | 0.00 | 0.00 | 71 | 1015.1 |
| 20260905024031 | 63 | 73 | 2.0 | 3.0 | 0.00 | 0.00 | 0.00 | 70 | 1014.8 |
| 20260905023527 | 63 | 142 | 2.0 | 2.0 | 0.00 | 0.00 | 0.00 | 70 | 1015.1 |
| 20260905023021 | 64 | 52 | 2.0 | 2.0 | 0.00 | 0.00 | 0.00 | 70 | 1015.0 |
| 20260905022521 | 64 | 64 | 3.0 | 3.0 | 0.00 | 0.00 | 0.00 | 70 | 1015.0 |
| 20260905022016 | 64 | 116 | 3.0 | 3.0 | 0.00 | 0.00 | 0.00 | 70 | 1015.1 |
| 20260905021515 | 64 | 85 | 3.0 | 5.0 | 0.00 | 0.00 | 0.00 | 69 | 1015.0 |
| 20260905021011 | 64 | 74 | 1.0 | 2.0 | 0.00 | 0.00 | 0.00 | 69 | 1015.1 |
| 20260905020505 | 64 | 97 | 6.0 | 7.0 | 0.00 | 0.00 | 0.00 | 69 | 1015.1 |
| 20260905015959 | 64 | 138 | 5.0 | 7.0 | 0.00 | 0.00 | 0.00 | 70 | 1014.9 |
| 20260905015458 | 64 | 146 | 6.0 | 8.0 | 0.00 | 0.00 | 0.00 | 70 | 1014.9 |
| 20260905014957 | 64 | 50 | 5.0 | 6.0 | 0.00 | 0.00 | 0.00 | 70 | 1015.2 |
| 20260905014453 | 65 | 56 | 4.0 | 7.0 | 0.00 | 0.00 | 0.00 | 69 | 1014.9 |
| 20260905013948 | 66 | 86 | 1.0 | 3.0 | 0.00 | 0.00 | 0.00 | 68 | 1014.7 |
| 20260905013444 | 66 | 40 | 6.0 | 9.0 | 0.00 | 0.00 | 0.00 | 66 | 1014.8 |
| 20260905012939 | 66 | 84 | 4.0 | 6.0 | 0.00 | 0.00 | 0.00 | 65 | 1014.8 |
| 20260905012434 | 68 | 128 | 9.0 | 13.0 | 0.00 | 0.00 | 0.00 | 62 | 1014.8 |
| 20260905011931 | 68 | 110 | 2.0 | 3.0 | 0.00 | 0.00 | 0.00 | 61 | 1014.5 |
| 20260905011427 | 69 | 82 | 7.0 | 8.0 | 0.00 | 0.00 | 0.00 | 59 | 1014.4 |
| 20260905010922 | 69 | 2 | 0.0 | 0.0 | 0.00 | 0.00 | 0.00 | 57 | 1014.5 |
| 20260905010417 | 70 | 47 | 2.0 | 6.0 | 0.00 | 0.00 | 0.00 | 56 | 1014.5 |
| 20260905005913 | 70 | 332 | 3.0 | 5.0 | 0.00 | 0.00 | 0.00 | 56 | 1014.2 |
| 20260905005409 | 71 | 292 | 0.0 | 0.0 | 0.00 | 0.00 | 0.00 | 56 | 1014.2 |
| 20260905004904 | 71 | 304 | 1.0 | 3.0 | 0.00 | 0.00 | 0.00 | 55 | 1014.2 |
| 20260905004403 | 73 | 318 | 2.0 | 3.0 | 0.00 | 0.00 | 0.00 | 52 | 1014.2 |
| 20260905003859 | 71 | 318 | 0.0 | 0.0 | 0.00 | 0.00 | 0.00 | 56 | 1014.0 |
| 20260905003355 | 71 | 318 | 3.0 | 6.0 | 0.00 | 0.00 | 0.00 | 53 | 1013.9 |
| 20260905002850 | 72 | 271 | 2.0 | 3.0 | 0.00 | 0.00 | 0.00 | 52 | 1013.7 |
| 20260905002350 | 70 | 318 | 1.0 | 2.0 | 0.00 | 0.00 | 0.00 | 56 | 1013.7 |
| 20260905001844 | 71 | 347 | 0.0 | 0.0 | 0.00 | 0.00 | 0.00 | 55 | 1013.9 |
| 20260905001339 | 73 | 336 | 2.0 | 3.0 | 0.00 | 0.00 | 0.00 | 52 | 1013.9 |
| 20260905000834 | 70 | 347 | 0.0 | 0.0 | 0.00 | 0.00 | 0.00 | 56 | 1013.6 |
| 20260905000329 | 71 | 302 | 0.0 | 1.0 | 0.00 | 0.00 | 0.00 | 54 | 1013.9 |
| 20260904235825 | 70 | 339 | 0.0 | 0.0 | 0.00 | 0.00 | 0.00 | 57 | 1013.9 |
| 20260904235320 | 72 | 349 | 4.0 | 6.0 | 0.00 | 0.00 | 0.00 | 54 | 1013.6 |
| 20260904234814 | 71 | 284 | 1.0 | 3.0 | 0.00 | 0.00 | 0.00 | 52 | 1013.4 |
| 20260904234309 | 72 | 317 | 1.0 | 2.0 | 0.00 | 0.00 | 0.00 | 51 | 1013.7 |
| 20260904233805 | 71 | 282 | 0.0 | 0.0 | 0.00 | 0.00 | 0.00 | 52 | 1013.7 |
| 20260904233301 | 71 | 312 | 0.0 | 1.0 | 0.00 | 0.00 | 0.00 | 54 | 1013.6 |
| 20260904232757 | 70 | 333 | 5.0 | 7.0 | 0.00 | 0.00 | 0.00 | 56 | 1013.5 |
| 20260904232253 | 71 | 326 | 5.0 | 6.0 | 0.00 | 0.00 | 0.00 | 55 | 1013.6 |
| 20260904231749 | 70 | 311 | 0.0 | 0.0 | 0.00 | 0.00 | 0.00 | 55 | 1013.4 |
| 20260904231244 | 71 | 315 | 3.0 | 7.0 | 0.00 | 0.00 | 0.00 | 54 | 1013.3 |
| 20260904230739 | 72 | 299 | 0.0 | 0.0 | 0.00 | 0.00 | 0.00 | 53 | 1013.6 |
| 20260904230233 | 71 | 350 | 0.0 | 0.0 | 0.00 | 0.00 | 0.00 | 54 | 1013.5 |
| 20260904225732 | 72 | 288 | 0.0 | 0.0 | 0.00 | 0.00 | 0.00 | 53 | 1013.5 |
| 20260904225226 | 71 | 278 | 0.0 | 0.0 | 0.00 | 0.00 | 0.00 | 54 | 1013.4 |
| 20260904224725 | 69 | 342 | 5.0 | 6.0 | 0.00 | 0.00 | 0.00 | 55 | 1013.7 |
| 20260904224221 | 71 | 279 | 1.0 | 1.0 | 0.00 | 0.00 | 0.00 | 55 | 1013.3 |
| 20260904223720 | 70 | 298 | 1.0 | 2.0 | 0.00 | 0.00 | 0.00 | 56 | 1013.5 |
| 20260904223215 | 71 | 304 | 2.0 | 3.0 | 0.00 | 0.00 | 0.00 | 54 | 1013.3 |
| 20260904222711 | 70 | 307 | 1.0 | 3.0 | 0.00 | 0.00 | 0.00 | 55 | 1013.4 |
| 20260904222207 | 70 | 342 | 5.0 | 6.0 | 0.00 | 0.00 | 0.00 | 56 | 1013.2 |
| 20260904221706 | 70 | 316 | 4.0 | 6.0 | 0.00 | 0.00 | 0.00 | 55 | 1013.5 |
| 20260904221201 | 69 | 327 | 4.0 | 5.0 | 0.00 | 0.00 | 0.00 | 58 | 1013.5 |
| 20260904220656 | 68 | 251 | 1.0 | 3.0 | 0.00 | 0.00 | 0.00 | 60 | 1013.2 |
| 20260904220151 | 68 | 1 | 2.0 | 3.0 | 0.00 | 0.00 | 0.00 | 59 | 1013.4 |
| 20260904215650 | 68 | 238 | 5.0 | 7.0 | 0.00 | 0.00 | 0.00 | 59 | 1013.4 |
| 20260904215147 | 69 | 316 | 6.0 | 8.0 | 0.00 | 0.00 | 0.00 | 60 | 1013.5 |
| 20260904214641 | 69 | 274 | 1.0 | 1.0 | 0.00 | 0.00 | 0.00 | 61 | 1013.4 |
| 20260904214137 | 71 | 326 | 4.0 | 6.0 | 0.00 | 0.00 | 0.00 | 57 | 1013.2 |
| 20260904213635 | 68 | 317 | 6.0 | 7.0 | 0.00 | 0.00 | 0.00 | 60 | 1013.4 |
| 20260904213131 | 69 | 318 | 5.0 | 7.0 | 0.00 | 0.00 | 0.00 | 59 | 1013.3 |
| 20260904212626 | 70 | 329 | 7.0 | 8.0 | 0.00 | 0.00 | 0.00 | 59 | 1013.5 |
| 20260904212121 | 70 | 317 | 1.0 | 1.0 | 0.00 | 0.00 | 0.00 | 57 | 1013.4 |
| 20260904211620 | 69 | 338 | 0.0 | 2.0 | 0.00 | 0.00 | 0.00 | 57 | 1013.3 |
| 20260904211116 | 70 | 267 | 0.0 | 0.0 | 0.00 | 0.00 | 0.00 | 59 | 1013.3 |
| 20260904210616 | 69 | 317 | 5.0 | 7.0 | 0.00 | 0.00 | 0.00 | 57 | 1013.4 |
| 20260904210111 | 69 | 304 | 1.0 | 1.0 | 0.00 | 0.00 | 0.00 | 57 | 1013.3 |
| 20260904205607 | 68 | 2 | 2.0 | 3.0 | 0.00 | 0.00 | 0.00 | 59 | 1013.3 |
| 20260904205103 | 69 | 333 | 9.0 | 11.0 | 0.00 | 0.00 | 0.00 | 57 | 1013.2 |
| 20260904204559 | 68 | 192 | 0.0 | 0.0 | 0.00 | 0.00 | 0.00 | 61 | 1013.4 |
| 20260904204055 | 68 | 348 | 3.0 | 6.0 | 0.00 | 0.00 | 0.00 | 62 | 1013.2 |
| 20260904203550 | 68 | 13 | 5.0 | 6.0 | 0.00 | 0.00 | 0.00 | 60 | 1013.5 |
| 20260904203047 | 67 | 283 | 1.0 | 2.0 | 0.00 | 0.00 | 0.00 | 62 | 1013.2 |
| 20260904202542 | 67 | 336 | 3.0 | 5.0 | 0.00 | 0.00 | 0.00 | 63 | 1013.3 |
| 20260904202039 | 68 | 250 | 4.0 | 6.0 | 0.00 | 0.00 | 0.00 | 61 | 1013.2 |
| 20260904201533 | 68 | 234 | 0.0 | 0.0 | 0.00 | 0.00 | 0.00 | 63 | 1013.2 |
| 20260904201029 | 69 | 306 | 1.0 | 2.0 | 0.00 | 0.00 | 0.00 | 63 | 1013.4 |
| 20260904200527 | 66 | 248 | 7.0 | 8.0 | 0.00 | 0.00 | 0.00 | 67 | 1013.2 |
| 20260904200023 | 67 | 249 | 2.0 | 3.0 | 0.00 | 0.00 | 0.00 | 67 | 1013.2 |
| 20260904195521 | 66 | 252 | 2.0 | 5.0 | 0.00 | 0.00 | 0.00 | 67 | 1013.1 |
| 20260904195020 | 66 | 300 | 6.0 | 9.0 | 0.00 | 0.00 | 0.00 | 68 | 1013.4 |
| 20260904194515 | 66 | 309 | 0.0 | 0.0 | 0.00 | 0.00 | 0.00 | 68 | 1013.2 |
| 20260904194010 | 66 | 238 | 7.0 | 8.0 | 0.00 | 0.00 | 0.00 | 68 | 1013.3 |
| 20260904193505 | 67 | 255 | 0.0 | 1.0 | 0.00 | 0.00 | 0.00 | 68 | 1013.5 |
| 20260904193001 | 67 | 1 | 2.0 | 2.0 | 0.00 | 0.00 | 0.00 | 68 | 1013.6 |
| 20260904192500 | 66 | 353 | 2.0 | 3.0 | 0.00 | 0.00 | 0.00 | 68 | 1013.5 |
| 20260904191957 | 66 | 313 | 0.0 | 1.0 | 0.00 | 0.00 | 0.00 | 69 | 1013.5 |
| 20260904191453 | 66 | 207 | 2.0 | 2.0 | 0.00 | 0.00 | 0.00 | 70 | 1013.4 |
| 20260904190949 | 65 | 320 | 0.0 | 1.0 | 0.00 | 0.00 | 0.00 | 72 | 1013.5 |
| 20260904190444 | 66 | 268 | 0.0 | 0.0 | 0.00 | 0.00 | 0.00 | 72 | 1013.5 |
| 20260904185940 | 66 | 262 | 0.0 | 1.0 | 0.00 | 0.00 | 0.00 | 71 | 1013.6 |
| 20260904185436 | 65 | 293 | 2.0 | 2.0 | 0.00 | 0.00 | 0.00 | 73 | 1013.7 |
| 20260904184937 | 64 | 290 | 2.0 | 2.0 | 0.00 | 0.00 | 0.00 | 74 | 1013.7 |
| 20260904184431 | 64 | 219 | 1.0 | 2.0 | 0.00 | 0.00 | 0.00 | 73 | 1013.7 |
| 20260904183926 | 64 | 245 | 1.0 | 1.0 | 0.00 | 0.00 | 0.00 | 75 | 1013.6 |
| 20260904183421 | 64 | 264 | 2.0 | 2.0 | 0.00 | 0.00 | 0.00 | 74 | 1013.6 |
| 20260904182917 | 64 | 285 | 3.0 | 3.0 | 0.00 | 0.00 | 0.00 | 75 | 1013.3 |
| 20260904182412 | 62 | 261 | 2.0 | 3.0 | 0.00 | 0.00 | 0.00 | 77 | 1013.5 |
| 20260904181906 | 63 | 279 | 1.0 | 3.0 | 0.00 | 0.00 | 0.00 | 77 | 1013.5 |
| 20260904181402 | 63 | 243 | 2.0 | 2.0 | 0.00 | 0.00 | 0.00 | 77 | 1013.4 |
| 20260904180857 | 62 | 320 | 0.0 | 0.0 | 0.00 | 0.00 | 0.00 | 79 | 1013.5 |
| 20260904180352 | 62 | 313 | 0.0 | 0.0 | 0.00 | 0.00 | 0.00 | 78 | 1013.5 |
| 20260904175852 | 63 | 256 | 1.0 | 2.0 | 0.00 | 0.00 | 0.00 | 78 | 1013.4 |
| 20260904175350 | 63 | 260 | 0.0 | 1.0 | 0.00 | 0.00 | 0.00 | 77 | 1013.4 |
| 20260904174844 | 64 | 326 | 3.0 | 3.0 | 0.00 | 0.00 | 0.00 | 75 | 1013.6 |
| 20260904174340 | 66 | 271 | 0.0 | 0.0 | 0.00 | 0.00 | 0.00 | 73 | 1013.4 |
| 20260904173836 | 66 | 270 | 0.0 | 0.0 | 0.00 | 0.00 | 0.00 | 71 | 1013.4 |
| 20260904173331 | 64 | 171 | 2.0 | 3.0 | 0.00 | 0.00 | 0.00 | 74 | 1013.4 |
| 20260904172828 | 62 | 230 | 0.0 | 0.0 | 0.00 | 0.00 | 0.00 | 78 | 1013.3 |
| 20260904172327 | 62 | 196 | 2.0 | 2.0 | 0.00 | 0.00 | 0.00 | 79 | 1013.4 |
| 20260904171822 | 62 | 186 | 5.0 | 6.0 | 0.00 | 0.00 | 0.00 | 80 | 1013.3 |
| 20260904171317 | 64 | 180 | 3.0 | 3.0 | 0.00 | 0.00 | 0.00 | 77 | 1013.4 |
| 20260904170813 | 63 | 163 | 1.0 | 1.0 | 0.00 | 0.00 | 0.00 | 79 | 1013.2 |
| 20260904170309 | 62 | 204 | 3.0 | 5.0 | 0.00 | 0.00 | 0.00 | 81 | 1013.3 |
| 20260904165809 | 61 | 208 | 1.0 | 2.0 | 0.00 | 0.00 | 0.00 | 82 | 1013.3 |
| 20260904165308 | 61 | 74 | 0.0 | 0.0 | 0.00 | 0.00 | 0.00 | 83 | 1013.4 |
| 20260904164803 | 60 | 204 | 0.0 | 0.0 | 0.00 | 0.00 | 0.00 | 85 | 1013.6 |
| 20260904164257 | 60 | 267 | 0.0 | 0.0 | 0.00 | 0.00 | 0.00 | 88 | 1013.5 |
| 20260904163754 | 58 | 258 | 0.0 | 0.0 | 0.00 | 0.00 | 0.00 | 89 | 1013.4 |
| 20260904163248 | 58 | 299 | 0.0 | 0.0 | 0.00 | 0.00 | 0.00 | 90 | 1013.3 |
| 20260904162748 | 58 | 324 | 0.0 | 0.0 | 0.00 | 0.00 | 0.00 | 91 | 1013.6 |
| 20260904162243 | 57 | 329 | 0.0 | 0.0 | 0.00 | 0.00 | 0.00 | 92 | 1013.4 |
| 20260904161739 | 57 | 314 | 0.0 | 0.0 | 0.00 | 0.00 | 0.00 | 92 | 1013.7 |
| 20260904161238 | 57 | 288 | 0.0 | 0.0 | 0.00 | 0.00 | 0.00 | 92 | 1013.2 |
| 20260904160734 | 57 | 322 | 2.0 | 2.0 | 0.00 | 0.00 | 0.00 | 92 | 1013.4 |
| 20260904160230 | 57 | 302 | 0.0 | 0.0 | 0.00 | 0.00 | 0.00 | 93 | 1013.2 |
| 20260904155729 | 56 | 305 | 0.0 | 0.0 | 0.00 | 0.00 | 0.00 | 93 | 1013.2 |
| 20260904155229 | 56 | 314 | 2.0 | 2.0 | 0.00 | 0.00 | 0.00 | 94 | 1013.1 |
| 20260904154727 | 56 | 255 | 2.0 | 3.0 | 0.00 | 0.00 | 0.00 | 94 | 1013.1 |
| 20260904154222 | 55 | 265 | 0.0 | 0.0 | 0.00 | 0.00 | 0.00 | 94 | 1013.2 |
| 20260904153718 | 55 | 297 | 1.0 | 1.0 | 0.00 | 0.00 | 0.00 | 95 | 1013.2 |
| 20260904153213 | 55 | 286 | 0.0 | 0.0 | 0.00 | 0.00 | 0.00 | 95 | 1013.2 |
| 20260904152710 | 55 | 290 | 0.0 | 0.0 | 0.00 | 0.00 | 0.00 | 95 | 1013.1 |
| 20260904152204 | 55 | 275 | 0.0 | 0.0 | 0.00 | 0.00 | 0.00 | 95 | 1013.1 |
| 20260904151659 | 55 | 292 | 0.0 | 0.0 | 0.00 | 0.00 | 0.00 | 95 | 1013.0 |
| 20260904151158 | 55 | 300 | 0.0 | 0.0 | 0.00 | 0.00 | 0.00 | 95 | 1013.0 |
| 20260904150654 | 54 | 291 | 0.0 | 0.0 | 0.00 | 0.00 | 0.00 | 95 | 1013.0 |
| 20260904150149 | 54 | 301 | 0.0 | 0.0 | 0.00 | 0.00 | 0.00 | 95 | 1012.8 |
| 20260904145648 | 54 | 301 | 0.0 | 0.0 | 0.00 | 0.00 | 0.00 | 95 | 1012.5 |
| 20260904145143 | 54 | 300 | 0.0 | 0.0 | 0.00 | 0.00 | 0.00 | 95 | 1012.6 |
| 20260904144638 | 54 | 292 | 0.0 | 0.0 | 0.00 | 0.00 | 0.00 | 95 | 1012.8 |
| 20260904144134 | 54 | 296 | 0.0 | 0.0 | 0.00 | 0.00 | 0.00 | 95 | 1012.5 |
| 20260904143630 | 54 | 282 | 0.0 | 0.0 | 0.00 | 0.00 | 0.00 | 95 | 1012.6 |
| 20260904143126 | 54 | 289 | 0.0 | 0.0 | 0.00 | 0.00 | 0.00 | 95 | 1012.7 |
| 20260904142623 | 54 | 294 | 0.0 | 0.0 | 0.00 | 0.00 | 0.00 | 95 | 1012.6 |
| 20260904142118 | 54 | 294 | 0.0 | 0.0 | 0.00 | 0.00 | 0.00 | 95 | 1012.5 |
| 20260904141613 | 54 | 301 | 0.0 | 0.0 | 0.00 | 0.00 | 0.00 | 95 | 1012.5 |
| 20260904141108 | 54 | 275 | 0.0 | 0.0 | 0.00 | 0.00 | 0.00 | 95 | 1012.4 |
| 20260904140604 | 54 | 272 | 0.0 | 0.0 | 0.00 | 0.00 | 0.00 | 95 | 1012.4 |
| 20260904140058 | 54 | 279 | 0.0 | 0.0 | 0.00 | 0.00 | 0.00 | 95 | 1012.4 |
| 20260904135557 | 54 | 281 | 0.0 | 0.0 | 0.00 | 0.00 | 0.00 | 95 | 1012.2 |
| 20260904135053 | 54 | 294 | 0.0 | 0.0 | 0.00 | 0.00 | 0.00 | 95 | 1012.2 |
| 20260904134548 | 54 | 298 | 0.0 | 0.0 | 0.00 | 0.00 | 0.00 | 95 | 1012.1 |
| 20260904134043 | 54 | 296 | 0.0 | 0.0 | 0.00 | 0.00 | 0.00 | 95 | 1012.4 |
| 20260904133537 | 54 | 290 | 0.0 | 0.0 | 0.00 | 0.00 | 0.00 | 95 | 1011.9 |
| 20260904133033 | 54 | 285 | 0.0 | 0.0 | 0.00 | 0.00 | 0.00 | 95 | 1011.8 |
| 20260904132528 | 53 | 290 | 0.0 | 0.0 | 0.00 | 0.00 | 0.00 | 95 | 1011.9 |
| 20260904132028 | 54 | 291 | 0.0 | 0.0 | 0.00 | 0.00 | 0.00 | 95 | 1011.8 |
| 20260904131527 | 54 | 291 | 0.0 | 0.0 | 0.00 | 0.00 | 0.00 | 95 | 1012.0 |
| 20260904131023 | 54 | 289 | 0.0 | 0.0 | 0.00 | 0.00 | 0.00 | 95 | 1011.7 |
| 20260904130522 | 54 | 287 | 0.0 | 0.0 | 0.00 | 0.00 | 0.00 | 95 | 1011.6 |
| 20260904130017 | 54 | 277 | 0.0 | 0.0 | 0.00 | 0.00 | 0.00 | 95 | 1011.6 |
| 20260904125514 | 54 | 274 | 0.0 | 0.0 | 0.00 | 0.00 | 0.00 | 95 | 1011.6 |
| 20260904125008 | 54 | 276 | 0.0 | 0.0 | 0.00 | 0.00 | 0.00 | 94 | 1011.6 |
| 20260904124504 | 54 | 277 | 0.0 | 0.0 | 0.00 | 0.00 | 0.00 | 94 | 1011.7 |
| 20260904123954 | 54 | 271 | 0.0 | 0.0 | 0.00 | 0.00 | 0.00 | 94 | 1011.5 |
| 20260904123448 | 53 | 282 | 0.0 | 0.0 | 0.00 | 0.00 | 0.00 | 94 | 1011.5 |
| 20260904122944 | 53 | 277 | 0.0 | 0.0 | 0.00 | 0.00 | 0.00 | 94 | 1011.7 |
| 20260904122443 | 53 | 282 | 0.0 | 0.0 | 0.00 | 0.00 | 0.00 | 94 | 1011.7 |
| 20260904121938 | 54 | 276 | 0.0 | 0.0 | 0.00 | 0.00 | 0.00 | 94 | 1011.6 |
| 20260904121434 | 53 | 284 | 0.0 | 0.0 | 0.00 | 0.00 | 0.00 | 94 | 1011.7 |
| 20260904120931 | 53 | 290 | 0.0 | 0.0 | 0.00 | 0.00 | 0.00 | 93 | 1011.5 |
| 20260904120426 | 54 | 301 | 0.0 | 0.0 | 0.00 | 0.00 | 0.00 | 93 | 1011.4 |
| 20260904115921 | 54 | 284 | 0.0 | 0.0 | 0.00 | 0.00 | 0.00 | 93 | 1011.4 |
| 20260904115416 | 54 | 283 | 0.0 | 0.0 | 0.00 | 0.00 | 0.00 | 93 | 1011.3 |
| 20260904114910 | 54 | 301 | 0.0 | 0.0 | 0.00 | 0.00 | 0.00 | 93 | 1011.1 |
| 20260904114405 | 54 | 306 | 0.0 | 0.0 | 0.00 | 0.00 | 0.00 | 93 | 1011.1 |
| 20260904113901 | 54 | 298 | 0.0 | 0.0 | 0.00 | 0.00 | 0.00 | 93 | 1011.1 |
| 20260904113401 | 54 | 305 | 0.0 | 0.0 | 0.00 | 0.00 | 0.00 | 92 | 1011.2 |
| 20260904112900 | 54 | 269 | 0.0 | 0.0 | 0.00 | 0.00 | 0.00 | 92 | 1011.0 |
| 20260904112356 | 54 | 292 | 0.0 | 0.0 | 0.00 | 0.00 | 0.00 | 92 | 1011.1 |
| 20260904111851 | 54 | 274 | 0.0 | 0.0 | 0.00 | 0.00 | 0.00 | 92 | 1011.2 |
| 20260904111347 | 54 | 262 | 0.0 | 0.0 | 0.00 | 0.00 | 0.00 | 92 | 1010.9 |
| 20260904110842 | 55 | 279 | 0.0 | 0.0 | 0.00 | 0.00 | 0.00 | 92 | 1011.0 |
| 20260904110341 | 55 | 267 | 0.0 | 0.0 | 0.00 | 0.00 | 0.00 | 92 | 1011.0 |
| 20260904105836 | 54 | 266 | 0.0 | 0.0 | 0.00 | 0.00 | 0.00 | 92 | 1010.9 |
| 20260904105331 | 55 | 271 | 0.0 | 0.0 | 0.00 | 0.00 | 0.00 | 92 | 1011.0 |
| 20260904104826 | 55 | 273 | 0.0 | 0.0 | 0.00 | 0.00 | 0.00 | 92 | 1011.1 |
| 20260904104321 | 55 | 295 | 0.0 | 0.0 | 0.00 | 0.00 | 0.00 | 91 | 1010.9 |
| 20260904103818 | 55 | 281 | 0.0 | 0.0 | 0.00 | 0.00 | 0.00 | 91 | 1010.7 |
| 20260904103318 | 55 | 289 | 0.0 | 0.0 | 0.00 | 0.00 | 0.00 | 91 | 1011.1 |
| 20260904102814 | 55 | 296 | 0.0 | 0.0 | 0.00 | 0.00 | 0.00 | 91 | 1010.8 |
| 20260904102309 | 55 | 291 | 0.0 | 0.0 | 0.00 | 0.00 | 0.00 | 92 | 1010.8 |
| 20260904101805 | 55 | 300 | 0.0 | 0.0 | 0.00 | 0.00 | 0.00 | 91 | 1010.7 |
| 20260904101301 | 55 | 304 | 0.0 | 0.0 | 0.00 | 0.00 | 0.00 | 91 | 1010.6 |
| 20260904100756 | 55 | 309 | 0.0 | 0.0 | 0.00 | 0.00 | 0.00 | 91 | 1010.8 |
| 20260904100252 | 55 | 295 | 0.0 | 0.0 | 0.00 | 0.00 | 0.00 | 91 | 1010.7 |
| 20260904095752 | 55 | 289 | 0.0 | 0.0 | 0.00 | 0.00 | 0.00 | 91 | 1010.8 |
| 20260904095247 | 56 | 294 | 0.0 | 0.0 | 0.00 | 0.00 | 0.00 | 91 | 1010.8 |
| 20260904094742 | 56 | 275 | 0.0 | 0.0 | 0.00 | 0.00 | 0.00 | 91 | 1010.7 |
| 20260904094237 | 56 | 274 | 0.0 | 0.0 | 0.00 | 0.00 | 0.00 | 91 | 1010.6 |
| 20260904093734 | 56 | 260 | 0.0 | 0.0 | 0.00 | 0.00 | 0.00 | 91 | 1010.8 |
| 20260904093233 | 56 | 284 | 0.0 | 0.0 | 0.00 | 0.00 | 0.00 | 91 | 1010.8 |
| 20260904092729 | 56 | 261 | 0.0 | 0.0 | 0.00 | 0.00 | 0.00 | 91 | 1010.7 |
| 20260904092225 | 56 | 260 | 0.0 | 0.0 | 0.00 | 0.00 | 0.00 | 92 | 1010.8 |
| 20260904091720 | 56 | 311 | 0.0 | 0.0 | 0.00 | 0.00 | 0.00 | 92 | 1010.9 |
| 20260904091215 | 56 | 305 | 0.0 | 0.0 | 0.00 | 0.00 | 0.00 | 92 | 1010.8 |
| 20260904090711 | 56 | 326 | 0.0 | 0.0 | 0.00 | 0.00 | 0.00 | 92 | 1010.8 |
| 20260904090207 | 56 | 284 | 0.0 | 0.0 | 0.00 | 0.00 | 0.00 | 91 | 1010.5 |
| 20260904085701 | 56 | 280 | 0.0 | 0.0 | 0.00 | 0.00 | 0.00 | 91 | 1010.5 |
| 20260904085156 | 57 | 304 | 0.0 | 2.0 | 0.00 | 0.00 | 0.00 | 91 | 1010.6 |
| 20260904084651 | 57 | 313 | 0.0 | 0.0 | 0.00 | 0.00 | 0.00 | 91 | 1010.4 |